Vertical_Velocity
-1 -1 -2 -2 -1 -4 -3 -3 -4 -3 -2 -1 -1 -0 -2 -2 -2 0 -3 -0 -0 -1
-2 -1 -1 -2 -2 -3 -3 -3 -1 -3 -1 -1 -0 -2 -2 -1 -0 2 -2 -0 1 -3
-1 -2 -3 -3 -2 -3 -2 -1 -1 -1 -1 -0 -2 -2 -1 -1 -1 1 0 1 3 -1
-2 -0 -1 -3 -2 -2 -3 -1 -2 -2 -1 0 -2 -1 1 -3 0 1 1 -1 1 -1
-1 -2 -3 -2 -1 -1 -1 -4 -2 -0 -1 -2 -2 -1 0 -0 -3 0 3 3 -2 -2
-1 -3 -2 -1 -1 -2 -1 -2 -2 -0 1 1 2 4 2 0 -1 -2 -1 -1 2 0
-2 -2 -2 -3 -3 -2 -2 -1 -0 -1 0 -2 -1 -1 -1 0 -0 -3 -4 -1 -0 2
-3 -3 -3 -3 -2 -1 -3 -1 -2 1 -1 -2 -4 -1 1 0 -3 -2 -3 -2 -2 -1
-3 -3 -2 -2 -1 -0 0 -2 1 -0 0 -1 -4 -5 -4 -4 -1 -1 -1 -2 -2 -0
-2 -2 -2 -2 -1 1 2 -1 -1 -1 0 0 -2 -3 -4 -1 0 0 -1 -1 -1 -1
-2 -1 -3 -2 -1 -1 -1 0 3 -2 -3 -2 -2 -2 -1 -2 -1 -1 -2 -1 0 -0
-1 -1 -2 -1 1 0 -0 1 -0 -2 -1 -2 1 1 2 2 1 -2 -1 1 2 1
-1 -2 -2 -1 -1 -4 -4 -4 -6 -4 -3 -3 1 2 5 5 1 -2 1 -1 -2 -3
-2 -1 -2 -3 -0 -1 -2 -4 -4 -4 -4 -4 2 -0 1 5 6 2 1 1 -1 -1
Height
5623 5610 5595 5581 5567 5555 5545 5535 5526 5517 5508 5498 5489 5479 5469 5460 5450 5442 5433 5425 5417 5411
5613 5598 5585 5571 5558 5548 5538 5529 5521 5511 5502 5491 5481 5471 5460 5451 5441 5432 5423 5414 5406 5399
5604 5589 5575 5563 5552 5542 5534 5526 5516 5506 5495 5484 5473 5463 5454 5444 5433 5424 5413 5403 5394 5385
5595 5580 5568 5558 5548 5539 5531 5522 5512 5501 5489 5478 5467 5457 5448 5437 5427 5416 5404 5392 5381 5371
5587 5575 5564 5554 5545 5536 5528 5518 5508 5496 5484 5473 5463 5453 5443 5433 5422 5411 5399 5385 5373 5361
5582 5570 5560 5550 5542 5534 5524 5514 5503 5492 5481 5470 5460 5450 5440 5429 5418 5407 5395 5382 5369 5357
5577 5567 5557 5548 5540 5531 5521 5511 5500 5489 5477 5467 5456 5446 5436 5426 5415 5404 5393 5381 5367 5355
5574 5564 5554 5546 5538 5529 5519 5509 5497 5486 5476 5465 5454 5443 5434 5424 5412 5402 5391 5379 5367 5355
5572 5562 5552 5545 5537 5528 5518 5507 5496 5485 5474 5463 5452 5441 5431 5421 5411 5400 5389 5378 5367 5357
5571 5560 5551 5544 5536 5527 5517 5506 5495 5484 5473 5463 5453 5441 5430 5420 5410 5399 5389 5378 5368 5357
5569 5559 5550 5543 5535 5527 5517 5506 5495 5483 5472 5463 5453 5443 5432 5421 5410 5399 5389 5379 5369 5359
5569 5559 5550 5543 5535 5527 5517 5506 5495 5484 5474 5464 5454 5444 5434 5423 5412 5401 5391 5381 5371 5362
5569 5559 5550 5544 5536 5527 5517 5507 5497 5486 5475 5465 5455 5445 5436 5426 5415 5405 5394 5384 5374 5365
5570 5560 5551 5544 5537 5529 5520 5510 5501 5489 5479 5468 5458 5447 5437 5428 5418 5409 5399 5388 5379 5371